Saturna Island,

4:20 AM PST on December 11, 2017 (GMT -0800)
Saturna Island

Weather History for CWEZ - February, 2013

Change the Weather History Date:

Wednesday, February 20, 2013

  Actual Average Record
Temperature  
Mean Temperature 41 °F -  
Max Temperature 44 °F - - ()
Min Temperature 38 °F - - ()
Degree Days  
Heating Degree Days 24    
Moisture  
Dew Point 37 °F    
Average Humidity 83    
Maximum Humidity 89    
Minimum Humidity 74    
Precipitation  
Precipitation 0.00 in - - ()
Sea Level Pressure  
Sea Level Pressure 30.00 in    
Wind  
Wind Speed 7 mph ()    
Max Wind Speed 16 mph    
Max Gust Speed -    
T = Trace of Precipitation, MM = Missing Value Source: Averaged Metar Reports

Daily Weather History Graph

Daily Weather History Graph

Search for Another Location

Airport or City:

Trip Planner

Search our weather history database for the weather conditions in past years. The results will help you decide how hot, cold, wet, or windy it might be!

Date:

Astronomy

Feb. 20, 2013 Rise Set
Actual Time 7:10 AM PST 5:42 PM PST
Civil Twilight 6:38 AM PST 6:14 PM PST
Nautical Twilight 6:01 AM PST 6:50 PM PST
Astronomical Twilight 5:25 AM PST 7:27 PM PST
Moon 12:53 PM PST (2/20) 3:50 AM PST (2/20)
Length of Visible Light 11h 35m
Length of Day
10h 31m
Waxing Gibbous, 77% of the Moon is Illuminated
Feb 20
Waxing Gibbous
Feb 25
Full
Mar 4
Last Quarter
Mar 11
New
Mar 19
First Quarter

Hourly Weather History & Observations

Time (PST) Temp. Windchill Dew Point Humidity Pressure Visibility Wind Dir Wind Speed Gust Speed Precip Events Conditions
12:00 AM 41.4 °F - 33.6 °F 74% 29.99 in - WNW 2.3 mph - N/A   Unknown
1:00 AM 40.8 °F 38.8 °F 34.9 °F 79% 29.99 in - West 3.5 mph - N/A   Unknown
2:00 AM 40.1 °F 36.1 °F 35.2 °F 83% 30.00 in - WSW 5.8 mph - N/A   Unknown
3:00 AM 39.6 °F 35.4 °F 36.1 °F 88% 30.01 in - WSW 5.8 mph - N/A   Unknown
4:00 AM 39 °F - 36 °F 84% 30.01 in - WSW 5.8 mph - -  
4:00 AM 39.0 °F 34.8 °F 36.0 °F 89% 30.01 in - WSW 5.8 mph - N/A   Unknown
5:00 AM 39.6 °F 35.4 °F 36.7 °F 89% 30.01 in - SW 5.8 mph - N/A   Unknown
6:00 AM 40.6 °F 36.7 °F 37.6 °F 89% 30.01 in - SSW 5.8 mph - N/A   Unknown
7:00 AM 41.0 °F 35.2 °F 37.9 °F 89% 30.00 in - SW 9.2 mph - N/A   Unknown
8:00 AM 41.7 °F 36.1 °F 38.5 °F 88% 29.99 in - SSW 9.2 mph - N/A   Unknown
9:00 AM 42.4 °F 35.3 °F 38.8 °F 87% 29.99 in - South 13.8 mph - N/A   Unknown
10:00 AM 42 °F - 38 °F 80% 30.00 in - SSW 16.1 mph - -  
10:00 AM 42.4 °F 34.7 °F 37.9 °F 84% 30.00 in - SSW 16.1 mph - N/A   Unknown
11:00 AM 43.0 °F 35.7 °F 38.5 °F 84% 30.00 in - SSW 15.0 mph - N/A   Unknown
12:00 PM 44.4 °F 37.5 °F 39.6 °F 83% 29.99 in - South 15.0 mph - N/A   Unknown
1:00 PM 43.3 °F 36.8 °F 38.5 °F 83% 29.99 in - South 12.7 mph - N/A   Unknown
2:00 PM 43.0 °F 36.4 °F 38.5 °F 84% 29.98 in - South 12.7 mph - N/A   Unknown
4:00 PM 43 °F - 38 °F 77% 29.98 in - SSE 10.4 mph - -  
4:00 PM 43.0 °F 37.2 °F 38.1 °F 83% 29.98 in - SSE 10.4 mph - N/A   Unknown
6:00 PM 43.0 °F 39.5 °F 37.8 °F 82% 29.99 in - South 5.8 mph - N/A   Unknown
7:00 PM 42.8 °F 38.0 °F 37.9 °F 83% 30.00 in - South 8.1 mph - N/A   Unknown
8:00 PM 42.8 °F 38.6 °F 37.6 °F 82% 30.01 in - SSE 6.9 mph - N/A   Unknown
9:00 PM 42.4 °F 38.1 °F 37.8 °F 83% 30.01 in - SSE 6.9 mph - N/A   Unknown
10:00 PM 42 °F - 37 °F 78% 30.01 in - South 9.2 mph - -  
10:00 PM 42.1 °F 36.6 °F 37.4 °F 83% 30.01 in - South 9.2 mph - N/A   Unknown
11:00 PM 42.1 °F 35.7 °F 36.5 °F 81% 30.00 in - South 11.5 mph - N/A   Unknown